• MPC Preparation (Info)

  • MPEC 2014-X37 : 2014 WP371

    The following Minor Planet Electronic Circular may be linked-to from your own Web pages, but must not otherwise be redistributed electronically.

    A form allowing access to any MPEC is at the bottom of this page.


    Read MPEC 2014-X36 Read MPEC 2014-X38


    M.P.E.C. 2014-X37                                Issued 2014 Dec. 5, 18:37 UT
    
         The Minor Planet Electronic Circulars contain information on unusual
             minor planets and routine data on comets.  They are published
       on behalf of Commission 20 of the International Astronomical Union by the
              Minor Planet Center, Smithsonian Astrophysical Observatory,
                              Cambridge, MA 02138, U.S.A.
    
                 Prepared using the Tamkin Foundation Computer Network
    
                                  MPC@CFA.HARVARD.EDU
                URL https://www.minorplanetcenter.net/    ISSN 1523-6714
    
                                      2014 WP371
    
    Observations:
         K14Wb1P* C2014 11 26.39739 05 38 36.462+10 52 01.49         21.3 wLEX037F51
         K14Wb1P  C2014 11 26.42340 05 38 35.090+10 50 12.01         21.1 wLEX037F51
         K14Wb1P  C2014 11 26.43636 05 38 34.403+10 49 17.61         21.4 wLEX037F51
         K14Wb1P KC2014 11 27.31791 05 37 53.75 +09 46 43.1          20.6 RoEX037291
         K14Wb1P KC2014 11 27.31998 05 37 53.64 +09 46 34.6          20.7 RoEX037291
         K14Wb1P KC2014 11 27.32208 05 37 53.52 +09 46 25.5                oEX037291
         K14Wb1P KC2014 11 28.35049 05 37 03.18 +08 32 33.6                oEX037291
         K14Wb1P KC2014 11 28.35254 05 37 03.06 +08 32 24.6                oEX037291
    
    Observer details:
    291 LPL/Spacewatch II.  Observer A. F. Tubbiolo.  1.8-m f/2.7 reflector + CCD.
    F51 Pan-STARRS 1, Haleakala.  Observers B. Gibson, T. Goggia, N. Primak,
        A. Schultz, M. Willman.  Measurers K. Chambers, S. Chastel, L. Denneau,
        H. Flewelling, M. Huber, E. Magnier, E. Schunova, R. Wainscoat, C. Waters,
        R. Weryk.  1.8-m Ritchey-Chretien + CCD.
    
    Orbital elements:
    2014 WP371                                               Earth MOID = 0.3534 AU
    Epoch 2014 Dec. 9.0 TT = JDT 2457000.5                  MPC
    M 336.30440              (2000.0)            P               Q
    n   0.44820806     Peri.  237.92188     -0.42738637     -0.81972008
    a   1.6910234      Node   242.12171     +0.90404614     -0.39050596
    e   0.2662312      Incl.   25.55503     -0.00643959     -0.41900368
    P   2.20           H   21.7           G   0.15           U   8
    Residuals in seconds of arc
    141126 F51  0.0   0.1-    141127 291  0.0   0.2-    141128 291  0.0   0.1+
    141126 F51  0.0   0.1-    141127 291  0.1+  0.1+    141128 291  0.0   0.1-
    141126 F51  0.1+  0.2+    141127 291  0.0   0.0
    
    Ephemeris:
    2014 WP371               a,e,i = 1.69, 0.27, 26                  q = 1.2408
    Date    TT    R. A. (2000) Decl.     Delta      r     Elong.  Phase     V
    2014 11 05    05 41 13.9 +30 23 19   0.5130  1.4062   135.9    29.4    22.3
    ...
    2014 11 20    05 42 15.6 +17 56 23   0.4073  1.3592   151.1    20.5    21.4
    ...
    2014 11 28    05 37 20.5 +08 58 03   0.3722  1.3364   156.5    17.1    21.1
    ...
    2014 12 04    05 31 41.7 +01 34 54   0.3579  1.3204   155.9    17.8    21.0
    2014 12 05    05 30 37.9 +00 20 02   0.3565  1.3179   155.3    18.2    21.0
    2014 12 06    05 29 32.5 -00 54 42   0.3554  1.3154   154.6    18.7    21.0
    ...
    2014 12 12    05 22 34.6 -08 11 51   0.3549  1.3010   148.7    23.1    21.1
    ...
    2014 12 20    05 13 03.4 -16 47 17   0.3682  1.2839   138.8    30.3    21.4
    ...
    2015 01 04    04 59 38.6 -27 45 39   0.4217  1.2590   122.1    41.4    21.9
    
    A. U. Tomatic                (C) Copyright 2014 MPC           M.P.E.C. 2014-X37
    

    Read MPEC 2014-X36 Read MPEC 2014-X38


    MPEC number:

    Enter an MPEC number in one of the following forms:

    • 1997-B01 (the full form)
    • J97B01 (the packed version of the full form)
    • B01 (the abbreviated form)